OpenBCM V2.0.2 (Linux)

Packet Radio Mailbox

IZ3LSV

[San Dona' di P. JN]

 Login: GUEST





  
TA2BBS > KEP      11.06.08 07:15l 77 Lines 3128 Bytes #999 (0) @ WW
BID : ARLK044
Read: GUEST
Subj: ARLK044 Keplerian data
Path: IZ3LSV<I0TVL<IK1ZNW<IR1UAW<IK2QCA<I4UKI<IK0MIL<TA2BBS
Sent: 080610/2128Z @:TA2BBS.#ANK.TUR.EU [Ankara] HF/PR/PTOR XFBB7.04j $:ARLK044
From: TA2BBS@TA2BBS.#ANK.TUR.EU
To  : KEP@ARL


ZCZC SK44
QST de W1AW
Keplerian Bulletin 44  ARLK044
From ARRL Headquarters
Newington, CT  June 10, 2008
To all radio amateurs

SB KEP ARL ARLK044
ARLK044 Keplerian data

Special thanks to AMSAT-NA (AMSAT.ORG) for the following Keplerian
data.

Decode 2-line elsets with the following key:
1 AAAAAU 00  0  0 BBBBB.BBBBBBBB  .CCCCCCCC  00000-0  00000-0 0  DDDZ
2 AAAAA EEE.EEEE FFF.FFFF GGGGGGG HHH.HHHH III.IIII JJ.JJJJJJJJKKKKKZ
KEY: A-CATALOGNUM B-EPOCHTIME C-DECAY D-ELSETNUM E-INCLINATION F-RAAN
G-ECCENTRICITY H-ARGPERIGEE I-MNANOM J-MNMOTION K-ORBITNUM Z-CHECKSUM

AO-07
1 07530U 74089B   08161.71195515 -.00000027  00000-0  10000-3 0  1977
2 07530 101.4674 193.4603 0011512 277.0354 082.9403 12.53573795536045
UO-11
1 14781U 84021B   08161.88219540  .00000302  00000-0  47444-4 0  6910
2 14781 098.1523 195.8066 0010154 096.1045 264.1308 14.79648326302775
AO-16
1 20439U 90005D   08162.43196339 -.00000015  00000-0  94971-5 0  3410
2 20439 098.2296 142.8401 0010426 192.4730 167.6209 14.31795312959959
AO-27
1 22825U 93061C   08161.84992285 +.00000002 +00000-0 +17443-4 0 09895
2 22825 098.3829 122.1465 0007600 285.9755 074.0605 14.29240536766721
IO-26
1 22826U 93061D   08161.83524745 -.00000017 +00000-0 +98578-5 0 06946
2 22826 098.3763 123.0457 0008091 281.7701 078.2579 14.29489141766813
PO-28
1 22829U 93061G   08162.24512544  .00000071  00000-0  43740-4 0  9659
2 22829 098.3646 124.5459 0008750 249.3028 110.7222 14.30191064767137
FO-29
1 24278U 96046B   08161.79990430 +.00000045 +00000-0 +84632-4 0 08080
2 24278 098.5850 079.0557 0349922 234.6190 122.1789 13.52937942583390
GO-32
1 25397U 98043D   08162.22045918 -.00000081  00000-0 -17730-4 0  6190
2 25397 098.3625 197.7270 0000354 226.5063 133.6114 14.23143909515220
ISS
1 25544U 98067A   08162.26318523 -.00000157  00000-0  30927-5 0  6387
2 25544 051.6408 052.0866 0005617 323.7185 132.7478 15.76735819547438
MO-46
1 26548U 00057D   08162.29008146 -.00000007  00000-0  17326-4 0  1201
2 26548 064.5559 151.6151 0028992 325.1540 034.7660 14.83267419416799
AO-40
1 26609U 00072B   08160.84821141 -.00000115  00000-0  10000-3 0   742
2 26609 007.5467 078.4472 7914805 089.6104 349.8072 01.25583088 34930
NO-44
1 26931U 01043C   08161.72956277 -.00000204  00000-0 -47247-4 0  8984
2 26931 067.0534 303.8680 0006619 273.1025 086.9282 14.29524251349341
SO-50
1 27607U 02058C   08161.73386847 +.00000142 +00000-0 +43717-4 0 06247
2 27607 064.5594 076.2758 0085533 280.7440 078.4080 14.71361985293872
CO-55
1 27844U 03031E   08161.61866246  .00000040  00000-0  38844-4 0  3244
2 27844 098.7148 169.9906 0010470 133.1161 227.0893 14.20582996256361
AO-51
1 28375U 04025K   08161.82536603  .00000021  00000-0  18998-4 0  1203
2 28375 098.0709 186.8097 0083339 174.5920 185.6188 14.40610371207343
VO-52
1 28650U 05017B   08162.38195787  .00000167  00000-0  27811-4 0  9525
2 28650 097.7896 229.1793 0027661 160.6064 199.6168 14.81472225167591

Keplerian bulletins are transmitted twice weekly from W1AW.  The
next scheduled transmission of these data will be Friday, June 13,
2008, at 2230z on Baudot and AMTOR.
NNNN


Read previous mail | Read next mail


 05.05.2026 03:26:17lGo back Go up